Watonga, OK

9:28 AM CDT on August 21, 2019 (GMT -0500)
Watonga

Weather History for KJWG - July, 2019

Change the Weather History Date:

Monday, July 22, 2019

  Actual Average Record
Temperature  
Mean Temperature 78 °F -  
Max Temperature 87 °F 94 °F 107 °F (1974)
Min Temperature 70 °F 70 °F 53 °F (1970)
Cooling Degree Days 14    
Growing Degree Days 28 (Base 50)    
Moisture  
Dew Point 62 °F    
Average Humidity 61    
Maximum Humidity 86    
Minimum Humidity 32    
Precipitation  
Precipitation 0.00 in - - ()
Sea Level Pressure  
Sea Level Pressure 30.16 in    
Wind  
Wind Speed 18 mph (NNE)    
Max Wind Speed 26 mph    
Max Gust Speed 33 mph    
Visibility 10 miles    
Events      
Averages and records for this station are not official NWS values.
T = Trace of Precipitation, MM = Missing Value Source: NWS Daily Summary

Daily Weather History Graph

Daily Weather History Graph

Search for Another Location

Airport or City:

Astronomy

Jul. 22, 2019 Rise Set
Actual Time 6:33 AM CDT 8:46 PM CDT
Civil Twilight 6:04 AM CDT 9:15 PM CDT
Nautical Twilight 5:29 AM CDT 9:50 PM CDT
Astronomical Twilight 4:50 AM CDT 10:28 PM CDT
Moon No Moon Rise 11:42 AM CDT (7/22)
Length of Visible Light 15h 10m
Length of Day
14h 12m
Waning Gibbous, 72% of the Moon is Illuminated
Jul 22
Waning Gibbous
Jul 24
Last Quarter
Jul 31
New
Aug 7
First Quarter
Aug 15
Full

Hourly Weather History & Observations

Time (CDT) Temp. Heat Index Dew Point Humidity Pressure Visibility Wind Dir Wind Speed Gust Speed Precip Events Conditions
12:15 AM 80.2 °F 83.5 °F 70.2 °F 71% 30.04 in 10.0 mi North 25.3 mph 33.4 mph N/A   Mostly Cloudy
12:35 AM 78.8 °F - 68.7 °F 71% 30.05 in 10.0 mi North 26.5 mph - N/A   Overcast
12:55 AM 77.0 °F - 69.1 °F 76% 30.07 in 7.0 mi NNE 23.0 mph 28.8 mph N/A   Haze
1:15 AM 76.5 °F - 69.6 °F 79% 30.07 in 10.0 mi NNE 23.0 mph 28.8 mph N/A   Scattered Clouds
1:35 AM 75.9 °F - 69.6 °F 81% 30.08 in 10.0 mi NNE 17.3 mph - N/A   Mostly Cloudy
1:55 AM 75.2 °F - 69.8 °F 83% 30.09 in 10.0 mi North 16.1 mph - N/A   Mostly Cloudy
2:15 AM 75.4 °F - 69.6 °F 82% 30.09 in 10.0 mi North 15.0 mph - N/A   Overcast
2:35 AM 75.0 °F - 69.3 °F 82% 30.10 in 10.0 mi North 17.3 mph - N/A   Mostly Cloudy
2:55 AM 74.8 °F - 69.1 °F 82% 30.10 in 10.0 mi North 15.0 mph 24.2 mph N/A   Mostly Cloudy
3:15 AM 74.1 °F - 67.5 °F 80% 30.09 in 10.0 mi North 17.3 mph - N/A   Mostly Cloudy
3:35 AM 72.7 °F - 67.8 °F 85% 30.09 in 10.0 mi North 15.0 mph - N/A   Mostly Cloudy
3:55 AM 73.4 °F - 68.0 °F 83% 30.09 in 10.0 mi North 16.1 mph - N/A   Overcast
4:15 AM 73.2 °F - 67.1 °F 81% 30.10 in 10.0 mi North 17.3 mph 21.9 mph N/A   Overcast
4:35 AM 72.7 °F - 66.4 °F 81% 30.10 in 10.0 mi North 13.8 mph 19.6 mph N/A   Overcast
4:55 AM 72.1 °F - 65.7 °F 80% 30.10 in 10.0 mi North 17.3 mph - N/A   Overcast
5:15 AM 71.6 °F - 65.7 °F 81% 30.10 in 10.0 mi North 16.1 mph 24.2 mph N/A   Overcast
5:35 AM 71.4 °F - 65.7 °F 82% 30.11 in 10.0 mi North 15.0 mph - N/A   Overcast
5:55 AM 71.1 °F - 65.3 °F 82% 30.12 in 10.0 mi North 12.7 mph - N/A   Overcast
6:15 AM 70.9 °F - 65.1 °F 82% 30.14 in 10.0 mi North 16.1 mph - N/A   Overcast
6:35 AM 70.9 °F - 65.3 °F 82% 30.15 in 10.0 mi North 15.0 mph - N/A   Overcast
6:55 AM 70.7 °F - 65.5 °F 83% 30.15 in 10.0 mi North 19.6 mph - N/A   Overcast
7:15 AM 70.3 °F - 65.7 °F 85% 30.17 in 10.0 mi North 18.4 mph - N/A   Overcast
7:35 AM 70.2 °F - 65.7 °F 86% 30.18 in 10.0 mi North 13.8 mph - N/A   Overcast
7:55 AM 70.5 °F - 65.7 °F 85% 30.17 in 10.0 mi North 16.1 mph - N/A   Overcast
8:15 AM 71.4 °F - 65.7 °F 82% 30.18 in 10.0 mi North 17.3 mph 20.7 mph N/A   Overcast
8:35 AM 72.1 °F - 65.7 °F 80% 30.18 in 10.0 mi North 19.6 mph - N/A   Overcast
8:55 AM 73.2 °F - 65.5 °F 77% 30.18 in 10.0 mi North 20.7 mph 26.5 mph N/A   Overcast
9:15 AM 73.9 °F - 65.5 °F 75% 30.19 in 10.0 mi North 17.3 mph 24.2 mph N/A   Overcast
9:35 AM 75.9 °F - 65.7 °F 70% 30.19 in 10.0 mi North 21.9 mph 27.6 mph N/A   Overcast
9:55 AM 75.4 °F - 65.3 °F 71% 30.19 in 10.0 mi North 23.0 mph - N/A   Overcast
10:15 AM 75.7 °F - 64.8 °F 69% 30.19 in 10.0 mi North 20.7 mph 27.6 mph N/A   Overcast
10:55 AM 77.5 °F - 65.3 °F 66% 30.20 in 10.0 mi North 20.7 mph - N/A   Overcast
11:15 AM 77.2 °F - 64.9 °F 66% 30.20 in 10.0 mi North 19.6 mph - N/A   Overcast
11:35 AM 79.5 °F - 65.1 °F 61% 30.20 in 10.0 mi North 18.4 mph 23.0 mph N/A   Mostly Cloudy
11:55 AM 80.6 °F 82.4 °F 64.9 °F 59% 30.20 in 10.0 mi NNE 20.7 mph - N/A   Mostly Cloudy
12:15 PM 81.0 °F 82.6 °F 64.2 °F 57% 30.20 in 10.0 mi North 20.7 mph 24.2 mph N/A   Mostly Cloudy
12:35 PM 81.9 °F 83.2 °F 63.5 °F 54% 30.20 in 10.0 mi North 18.4 mph 27.6 mph N/A   Mostly Cloudy
12:55 PM 82.8 °F 83.4 °F 61.7 °F 49% 30.19 in 10.0 mi NE 21.9 mph 31.1 mph N/A   Scattered Clouds
1:15 PM 83.8 °F 84.1 °F 61.2 °F 46% 30.19 in 10.0 mi NE 19.6 mph 28.8 mph N/A   Clear
1:35 PM 85.3 °F 85.4 °F 61.0 °F 44% 30.19 in 10.0 mi NE 21.9 mph 26.5 mph N/A   Scattered Clouds
1:55 PM 85.8 °F 85.4 °F 59.5 °F 41% 30.19 in 10.0 mi NE 20.7 mph 27.6 mph N/A   Scattered Clouds
2:15 PM 86.0 °F 85.4 °F 58.8 °F 40% 30.19 in 10.0 mi NNE 21.9 mph 25.3 mph N/A   Scattered Clouds
2:35 PM 86.5 °F 85.4 °F 57.7 °F 37% 30.18 in 10.0 mi NNE 16.1 mph 28.8 mph N/A   Scattered Clouds
2:55 PM 87.3 °F 85.9 °F 56.7 °F 35% 30.18 in 10.0 mi NNE 16.1 mph 28.8 mph N/A   Clear
3:15 PM 87.3 °F 85.5 °F 54.9 °F 33% 30.18 in 10.0 mi NE 19.6 mph 27.6 mph N/A   Clear
3:35 PM 87.1 °F 85.3 °F 55.0 °F 33% 30.18 in 10.0 mi NNE 17.3 mph 25.3 mph N/A   Clear
3:55 PM 87.3 °F 85.7 °F 55.6 °F 34% 30.17 in 10.0 mi NE 18.4 mph 25.3 mph N/A   Clear
4:15 PM 87.8 °F 86.1 °F 55.4 °F 33% 30.17 in 10.0 mi NE 16.1 mph 24.2 mph N/A   Clear
4:35 PM 87.8 °F 85.9 °F 54.1 °F 32% 30.16 in 10.0 mi NE 16.1 mph 23.0 mph N/A   Clear
4:55 PM 87.6 °F 85.7 °F 54.1 °F 32% 30.16 in 10.0 mi NNE 23.0 mph - N/A   Clear
5:15 PM 87.8 °F 85.9 °F 54.5 °F 32% 30.15 in 10.0 mi NNE 16.1 mph 23.0 mph N/A   Clear
5:35 PM 87.3 °F 85.5 °F 54.5 °F 33% 30.15 in 10.0 mi NE 11.5 mph 27.6 mph N/A   Clear
5:55 PM 87.4 °F 85.7 °F 54.7 °F 33% 30.15 in 10.0 mi NE 18.4 mph 21.9 mph N/A   Clear
6:15 PM 86.9 °F 85.3 °F 55.6 °F 34% 30.14 in 10.0 mi NE 18.4 mph 23.0 mph N/A   Clear
6:35 PM 86.7 °F 85.4 °F 56.5 °F 36% 30.14 in 10.0 mi NNE 19.6 mph - N/A   Clear
6:55 PM 86.0 °F 84.9 °F 56.8 °F 37% 30.15 in 10.0 mi NE 16.1 mph 24.2 mph N/A   Clear
7:15 PM 85.3 °F 84.3 °F 56.8 °F 38% 30.15 in 10.0 mi NE 16.1 mph 20.7 mph N/A   Clear
7:35 PM 84.6 °F 83.7 °F 57.0 °F 39% 30.15 in 10.0 mi NNE 17.3 mph - N/A   Clear
7:55 PM 83.7 °F 83.1 °F 57.4 °F 41% 30.16 in 10.0 mi NE 12.7 mph - N/A   Clear
8:15 PM 82.6 °F 82.3 °F 57.7 °F 43% 30.16 in 10.0 mi NE 12.7 mph - N/A   Clear
8:35 PM 80.1 °F 80.6 °F 58.1 °F 47% 30.17 in 10.0 mi NE 8.1 mph - N/A   Clear
8:55 PM 78.1 °F - 58.3 °F 50% 30.17 in 10.0 mi NE 9.2 mph - N/A   Clear
9:15 PM 76.1 °F - 58.8 °F 55% 30.18 in 10.0 mi NE 5.8 mph - N/A   Clear
9:35 PM 76.5 °F - 59.7 °F 56% 30.18 in 10.0 mi NE 6.9 mph - N/A   Mostly Cloudy
9:55 PM 75.7 °F - 59.7 °F 57% 30.19 in 10.0 mi NNE 8.1 mph - N/A   Mostly Cloudy
10:15 PM 75.2 °F - 59.0 °F 57% 30.21 in 10.0 mi NE 9.2 mph - N/A   Scattered Clouds
10:35 PM 75.0 °F - 59.9 °F 59% 30.22 in 10.0 mi NE 9.2 mph - N/A   Clear
10:55 PM 74.8 °F - 59.9 °F 60% 30.24 in 10.0 mi NE 9.2 mph - N/A   Scattered Clouds
11:15 PM 72.7 °F - 59.9 °F 64% 30.24 in 10.0 mi NE 8.1 mph - N/A   Mostly Cloudy
11:35 PM 72.1 °F - 59.5 °F 64% 30.25 in 10.0 mi NNE 8.1 mph - N/A   Scattered Clouds
11:55 PM 71.4 °F - 59.2 °F 65% 30.25 in 10.0 mi NNE 9.2 mph - N/A   Clear